Location: Gueux
(49.2505°N, 3.9102°E)
Time: 00:32:19
(UTC+00:00)

Daily predictions for brighter satellites

Satellite Brightness Start Highest point End
(mag) Time Altitude Azimuth Time Altitude Azimuth Time Altitude Azimuth
USA 234 4.5 03:06:46 10° ENE 03:10:26 35° NE 03:10:26 35° NE
USA 59 Rocket 3.0 03:34:44 12° E 03:34:44 12° E 03:35:09 10° ESE
NOSS 3-1 (C) 4.5 03:34:05 48° NNE 03:34:26 48° NE 03:42:26 10° ESE
ACS3 Solar Sail 4.2 03:40:25 10° N 03:40:27 10° N 03:40:27 10° N
SL-16 R/B 3.9 03:46:48 24° NNE 03:47:53 25° NE 03:52:32 10° E
Cosmos 2082 Rocket 3.6 03:49:32 28° SE 03:51:15 35° ESE 03:56:17 10° NE
COSMOS 2455 3.3 03:58:09 59° ENE 03:58:09 59° ENE 04:03:40 10° SE
ATLAS 3B R/B 4.2 03:59:03 27° N 03:59:55 28° N 04:06:28 10° ENE
NOSS 3-4 (A) 4.4 04:02:31 34° NNE 04:02:31 34° NNE 04:06:08 10° NE
NOSS 3-4 (C) 4.4 04:02:40 34° NNE 04:02:40 34° NNE 04:06:18 10° NE
Cosmos 1898 Rocket 4.4 04:02:27 46° ENE 04:02:27 46° ENE 04:07:10 10° SE
Cosmos 1980 Rocket 3.3 04:14:14 32° SSE 04:14:14 32° SSE 04:17:09 10° SSE
Cosmos 2098 Rocket 4.4 04:15:58 44° S 04:15:58 44° S 04:19:51 10° S
Cosmos 2369 3.8 04:16:15 74° E 04:16:15 74° E 04:21:44 10° SE
COSMO-SKYMED 1 4.1 04:18:19 10° SE 04:21:57 31° ENE 04:22:50 28° NE
Aureole 1 Rocket 4.2 04:20:44 52° NNW 04:22:45 89° ENE 04:30:16 10° SSE
SKYMED 2 4.4 04:19:58 10° SE 04:24:01 47° ENE 04:24:01 47° ENE
Cosmos 2180 Rocket 4.4 04:23:51 44° N 04:26:02 90° S 04:32:21 10° S
Cosmos 1937 Rocket 4.0 04:25:55 46° NNE 04:26:53 54° ENE 04:31:54 10° SE
Cosmos 372 Rocket 4.0 04:33:38 66° SSE 04:33:38 66° SSE 04:37:58 10° SSE
Celestis-02/Orion 38 4.4 04:30:31 10° NNE 04:35:17 77° N 04:35:17 77° N
Cosmos 2333 Rocket 3.4 04:33:56 23° N 04:37:02 39° NE 04:42:24 10° ESE
NOSS 3-1 (A) 4.4 04:37:46 31° NNW 04:41:05 55° NE 04:49:22 10° ESE
Cosmos 1606 Rocket 3.6 04:43:12 76° E 04:43:12 76° E 04:47:32 10° SSE
Cosmos 2360 Rocket 3.7 04:40:11 17° N 04:43:42 32° NE 04:48:41 10° ESE
Cosmos 2142 Rocket 4.4 04:47:06 49° NW 04:48:28 60° W 04:54:32 10° S
Cosmos 540 Rocket 4.5 04:56:48 30° NNW 04:56:48 30° NNW 04:59:51 10° NNE
USA 234 3.8 04:49:25 10° ENE 04:55:36 45° N 04:57:47 34° NW
Helios 1A Rocket 3.1 04:52:49 10° SSE 04:55:47 53° E 04:55:47 53° E
SeaSat 1 4.2 04:56:28 10° N 04:58:20 19° N 04:58:20 19° N
SL-4 R/B 2.5 05:03:15 41° NE 05:03:15 41° NE 05:05:37 10° E
Cosmos 2219 Rocket 3.9 04:58:07 12° N 05:02:30 28° NE 05:07:20 10° ESE
ATLAS 5 CENTAUR R/B 3.5 05:05:56 12° NNE 05:05:56 12° NNE 05:06:23 10° NNE
Cosmos 2322 Rocket 3.1 05:01:43 17° NNW 05:05:53 47° NE 05:11:21 10° SE
Cosmos 1726 Rocket 3.3 05:08:07 41° NNW 05:09:35 80° W 05:13:49 10° S
Meteor 2-3 Rocket 3.9 05:05:23 10° S 05:11:06 78° E 05:16:49 10° NNE
Cosmos 1092 Rocket 4.5 05:05:02 10° S 05:11:11 62° E 05:17:21 10° NNE
Cosmos 489 Rocket 4.4 05:08:52 10° SSW 05:15:11 87° WNW 05:21:30 10° NNE
CZ-4 R/B 3.6 05:10:32 10° NNE 05:15:12 82° WNW 05:19:49 10° SSW
Nadezhda 4 Rocket 3.9 05:09:53 10° SSW 05:16:09 67° WNW 05:22:26 10° N
Cosmos 1428 Rocket 4.4 05:11:01 10° SSW 05:17:14 77° W 05:23:34 10° N
NOSS 2-1 (D) 3.9 05:17:47 39° SW 05:17:47 39° SW 05:21:54 10° SSE
Cosmos 2237 4.3 05:15:45 35° NW 05:17:56 57° WSW 05:23:28 10° S
CZ-2C R/B 4.3 05:14:50 10° N 05:16:11 16° NNW 05:16:11 16° NNW
USA 59 Rocket 0.7 05:20:26 34° SW 05:20:26 34° SW 05:24:32 10° S
Cosmos 841 Rocket 3.4 05:17:57 10° SSW 05:23:10 71° WNW 05:28:27 10° NNE
COSMOS 2406 3.1 05:18:01 10° SSW 05:23:42 90° WNW 05:29:25 10° NNE
NOSS 2-1 (E) 3.7 05:25:12 41° WSW 05:25:27 41° SW 05:29:47 10° SSE
NOSS 3-1 (C) 4.1 05:21:26 27° NW 05:25:38 62° SW 05:34:18 10° SSE
Cosmos 1833 Rocket 4.2 05:28:01 18° NNW 05:28:01 18° NNW 05:31:18 10° N
Cosmos 1892 Rocket 3.4 05:25:43 10° SSW 05:30:04 78° W 05:34:30 10° N
Cosmos 2195 Rocket 4.4 05:24:19 10° SSW 05:30:34 76° W 05:36:56 10° N
SL-16 R/B 2.1 05:28:40 21° NNW 05:32:34 75° WSW 05:38:12 10° SSE
Cosmos 2082 Rocket 2.4 05:31:29 19° WSW 05:35:12 46° NW 05:40:36 10° NNE
IRS-1D 3.7 05:37:33 10° N 05:42:17 45° WNW 05:47:04 10° SW
COSMOS 2455 3.7 05:41:19 25° WNW 05:43:18 30° WSW 05:48:26 10° S
Cosmos 1898 Rocket 4.4 05:42:42 26° WNW 05:43:53 29° W 05:48:20 10° SSW
Meteor 2-20 4.4 05:39:19 10° NNW 05:45:21 60° W 05:51:18 10° S
Orbus 7S? 2.8 05:47:32 33° NNW 05:48:28 55° NNE 05:51:09 10° ESE
Cosmos 405 Rocket 3.7 05:45:39 10° SSE 05:48:44 41° E 05:51:51 10° NNE
ATLAS 3B R/B 3.9 05:46:18 13° NW 05:52:53 40° NNE 06:00:02 10° E
Cosmos-2242 2.9 05:49:45 10° NNW 05:53:56 60° W 05:58:05 10° S
Cosmos 1980 Rocket 4.1 05:56:02 11° WSW 05:56:02 11° WSW 05:56:40 10° WSW
Cosmos 2278 3.8 05:51:02 15° NW 05:55:38 58° WSW 06:01:09 10° S
COSMO-SKYMED 1 3.3 05:53:39 10° SSW 05:57:15 29° W 05:59:09 20° NW
Cosmos 1437 Rocket 4.4 05:55:25 10° N 05:58:28 28° ENE 06:01:30 10° SE
Cosmos 1484 Rocket 2.4 05:57:38 10° N 06:01:01 56° WNW 06:04:20 10° SSW
Cosmos 2058 Rocket 3.3 05:56:47 10° NNW 06:01:05 48° W 06:05:19 10° SSW
Meteor 2-2 Rocket 4.4 05:58:49 10° NNW 06:04:21 55° W 06:09:57 10° S
Okean 1 3.3 06:03:39 11° NNW 06:06:51 45° W 06:10:15 10° SSW
Meteor 2-20 Rocket 4.4 06:01:53 10° NNW 06:07:32 56° W 06:13:05 10° S
CORIOLIS 4.5 06:06:23 10° NNE 06:11:47 73° ESE 06:17:10 10° S
ARIANE 5 R/B 3.4 06:07:59 10° NNE 06:13:07 55° E 06:18:14 10° S
Cosmos 2285 Rocket 4.0 06:07:15 10° NNW 06:13:39 79° WSW 06:20:02 10° SSE
ATLAS 2AS CENTAUR R/B 4.2 06:08:46 10° S 06:15:15 41° ESE 06:21:37 10° NE
SL-08 ROCKET BODY 4.3 06:10:41 10° S 06:16:33 89° W 06:22:26 10° N
SL-08 R/B 4.4 06:13:47 10° SE 06:18:08 44° ENE 06:22:35 10° N
IRIDIUM 104 4.3 06:13:11 10° S 06:18:23 71° W 06:23:37 10° N
Cosmos 2333 Rocket 2.7 06:15:59 10° NW 06:21:24 44° WSW 06:26:47 10° S
SAR-Lupe-4 3.9 06:19:51 10° NNE 06:23:25 69° ESE 06:26:57 10° S
SMAP 3.0 06:19:41 10° NNE 06:24:23 85° WNW 06:29:03 10° SSW
IRIDIUM 114 4.4 06:22:25 10° SSW 06:27:33 59° W 06:32:44 10° N
Cosmos 2360 Rocket 2.4 06:22:29 10° NW 06:27:59 55° WSW 06:33:26 10° S
Helios 1A Rocket 4.5 06:28:02 10° WSW 06:29:02 11° W 06:29:20 11° W
Landsat 7 3.8 06:25:39 10° NNE 06:30:21 89° SE 06:35:00 10° SSW
Meteor 1-19 Rocket 4.5 06:24:35 10° N 06:30:22 81° ENE 06:36:17 10° SSE
SAR-Lupe-1 4.3 06:27:36 10° NNE 06:31:14 73° ESE 06:34:49 10° S
NOSS 3-1 (A) 4.4 06:25:11 10° NW 06:32:10 53° WSW 06:40:42 10° SSE
CBERS-1 4.2 06:28:03 10° N 06:33:00 52° WNW 06:37:54 10° SW
IGS 5A 4.0 06:30:12 10° N 06:33:50 34° WNW 06:37:28 10° SW
Cosmos 1814 Rocket 4.0 06:29:10 10° SSW 06:34:22 69° WNW 06:39:41 10° NNE
BREEZE-M DEB (TANK) 3.0 06:34:38 10° W 06:36:15 29° SSW 06:38:43 10° SE
Cosmos 2237 Rocket 3.9 06:32:03 10° NNW 06:36:40 25° NE 06:41:15 10° E
USA 234 3.6 06:31:38 10° E 06:38:05 62° NNE 06:44:33 10° WNW
SL-4 R/B 1.4 06:36:58 10° WNW 06:40:09 71° SSW 06:43:18 10° ESE
Cosmos 1758 Rocket 3.7 06:36:20 10° SSW 06:40:40 52° WNW 06:44:59 10° N
Cosmos 1733 2.8 06:40:02 10° SW 06:41:29 19° WNW 06:42:58 10° NNW
Cosmos 1743 2.3 06:38:31 10° SSW 06:41:42 56° WNW 06:44:56 10° N
IRS-1C 4.2 06:36:57 10° NNE 06:42:19 89° ESE 06:47:39 10° SSW
Thor Agena Rocket 3.6 06:40:32 10° N 06:45:31 57° WNW 06:50:26 10° SW
BREEZE-M DEB (TANK) 3.3 06:43:11 10° W 06:46:04 88° NNW 06:54:29 10° E
Cosmos 2219 Rocket 2.3 06:41:16 10° NNW 06:46:53 65° WSW 06:52:26 10° SSE
Cosmos 192 4.4 06:42:17 10° NNW 06:47:12 71° WSW 06:52:04 10° SSE
Cosmos 2322 Rocket 3.0 06:44:41 10° NW 06:49:47 35° WSW 06:54:51 10° S
S3M 4.0 06:44:16 10° NNW 06:50:29 77° W 06:56:36 10° S
